"Pseudo-MPEC" for P11CrPY

Created 2022 Dec 24 5:22:23 UT using Find_Orb

Click here for an explanation of pseudo-MPECs

 
 Astrometry: 
     P11CrPY* C2022 12 02vcHXQR$Hm+/c3\Astrometry:[redacted;VFNMVkR8MclickhSPF51
     P11CrPY  C2022 12 02Yj'Cl_ND=v8_lhere?MNYb*Y625((/,59?%tbq46Qg.TLsSN-3fRF51
     P11CrPY  C2022 12 02yV4=^wIMkhS?+$SAt_.\95\forfheexplanationM*R:7Qp%n.WqF51

Station data:
(F51) Pan-STARRS 1, Haleakala  (N20.707234 W156.255910)  US/Hawaii.
   Observers J. Bulger, T. Lowe, A. Schultz, M. Willman. Measurers K.
   Chambers, S. Chastel, T. de Boer, L. Denneau, J. Fairlamb, H. Flewelling,
   M. Huber, C.-C. Lin, E. Magnier, Y. Ramanjooloo, R. Wainscoat, R. Weryk.
   1.8-m Ritchey-Chrétien + CCD.

Orbital elements:  P11CrPY
   Perihelion 2022 Sep 30.41274 +/- 138 TT =  9:54:20 (JD 2459852.91274)
Epoch 2022 Dec  3.0 TT = JDT 2459916.5   Earth MOID: 0.0306      AutoNEOCP
M  51.66270866 +/- 100              (J2000 ecliptic)
n   0.81246949 +/- 0.672            Peri.  337.40788 +/- 70
a   1.13744744 +/- 0.627            Node    33.61888 +/- 90
e   0.1653125 +/- 0.21              Incl.    8.96884 +/- 39
P   1.21/443.09d           H 23.11  G  0.15   U 12.5  SR
q 0.94941305 +/- 0.689    Q 1.32548182 +/- 18.2
From 3 observations 2022 Dec. 2 (37.3 min); mean residual 0".08
Residuals in arcseconds: 
221202 F51  .00   .08+    221202 F51  .01-  .15-    221202 F51  .00   .08+    

Ephemerides (geocentric):
Date (UTC) HH   RA             Dec           delta  r     elong  mag " sig PA
---- --------  ------------   ------------  ------ ------ -----  --- --------
2022 12 24 05  11 16 46.127   +54 54 24.83  .21950 1.0989 116.4 22.0  51d  44
2022 12 24 06  11 16 44.832   +54 55 28.26  .21954 1.0990 116.4 22.0  51d  44
2022 12 24 07  11 16 43.522   +54 56 31.68  .21957 1.0991 116.4 22.0  51d  44
2022 12 24 08  11 16 42.196   +54 57 35.08  .21961 1.0992 116.5 22.0  51d  44
2022 12 24 09  11 16 40.854   +54 58 38.47  .21965 1.0993 116.5 22.0  51d  44
2022 12 24 10  11 16 39.496   +54 59 41.84  .21968 1.0994 116.5 22.0  51d  44
2022 12 24 11  11 16 38.123   +55 00 45.20  .21972 1.0996 116.5 22.0  51d  44
2022 12 24 12  11 16 36.734   +55 01 48.55  .21976 1.0997 116.6 22.0  51d  44
2022 12 24 13  11 16 35.329   +55 02 51.88  .21979 1.0998 116.6 22.0  52d  44
2022 12 24 14  11 16 33.909   +55 03 55.19  .21983 1.0999 116.6 22.0  52d  44
2022 12 24 15  11 16 32.472   +55 04 58.49  .21987 1.1000 116.7 22.0  52d  44
2022 12 24 16  11 16 31.020   +55 06 01.78  .21990 1.1001 116.7 22.0  52d  44
2022 12 24 17  11 16 29.552   +55 07 05.05  .21994 1.1002 116.7 22.0  52d  44
2022 12 24 18  11 16 28.069   +55 08 08.30  .21998 1.1003 116.8 22.0  52d  44
2022 12 24 19  11 16 26.569   +55 09 11.54  .22001 1.1005 116.8 22.0  52d  44
2022 12 24 20  11 16 25.053   +55 10 14.76  .22005 1.1006 116.8 22.0  52d  44
2022 12 24 21  11 16 23.522   +55 11 17.97  .22009 1.1007 116.8 22.0  52d  44
2022 12 24 22  11 16 21.974   +55 12 21.16  .22012 1.1008 116.9 22.0  52d  44
2022 12 24 23  11 16 20.411   +55 13 24.33  .22016 1.1009 116.9 22.0  52d  44
2022 12 25 00  11 16 18.832   +55 14 27.49  .22020 1.1010 116.9 22.0  52d  44
2022 12 25 01  11 16 17.237   +55 15 30.63  .22023 1.1011 117.0 22.0  52d  44
2022 12 25 02  11 16 15.625   +55 16 33.75  .22027 1.1012 117.0 22.0  52d  44
2022 12 25 03  11 16 13.998   +55 17 36.86  .22031 1.1014 117.0 22.0  52d  44
2022 12 25 04  11 16 12.354   +55 18 39.94  .22034 1.1015 117.1 22.0  52d  44
2022 12 25 05  11 16 10.695   +55 19 43.02  .22038 1.1016 117.1 22.0  52d  44
2022 12 25 06  11 16 09.019   +55 20 46.07  .22042 1.1017 117.1 22.0  52d  44
2022 12 25 07  11 16 07.328   +55 21 49.10  .22045 1.1018 117.2 22.0  52d  44
2022 12 25 08  11 16 05.620   +55 22 52.12  .22049 1.1019 117.2 22.0  52d  44
2022 12 25 09  11 16 03.896   +55 23 55.12  .22053 1.1020 117.2 22.0  52d  44
2022 12 25 10  11 16 02.156   +55 24 58.11  .22056 1.1021 117.2 22.0  52d  44
2022 12 25 11  11 16 00.400   +55 26 01.07  .22060 1.1023 117.3 22.0  52d  44
2022 12 25 12  11 15 58.627   +55 27 04.01  .22064 1.1024 117.3 22.0  52d  44
2022 12 25 13  11 15 56.839   +55 28 06.94  .22067 1.1025 117.3 22.0  52d  44
2022 12 25 14  11 15 55.034   +55 29 09.85  .22071 1.1026 117.4 22.0  52d  44
2022 12 25 15  11 15 53.213   +55 30 12.74  .22075 1.1027 117.4 22.0  52d  44
2022 12 25 16  11 15 51.375   +55 31 15.60  .22078 1.1028 117.4 22.0  52d  44
2022 12 25 17  11 15 49.522   +55 32 18.45  .22082 1.1029 117.5 22.0  52d  44
2022 12 25 18  11 15 47.652   +55 33 21.29  .22086 1.1030 117.5 22.0  52d  44
2022 12 25 19  11 15 45.765   +55 34 24.10  .22089 1.1032 117.5 22.0  52d  44
2022 12 25 20  11 15 43.862   +55 35 26.89  .22093 1.1033 117.5 22.0  52d  44
2022 12 25 21  11 15 41.943   +55 36 29.66  .22097 1.1034 117.6 22.0  52d  44
2022 12 25 22  11 15 40.008   +55 37 32.41  .22101 1.1035 117.6 22.0  52d  44
2022 12 25 23  11 15 38.056   +55 38 35.14  .22104 1.1036 117.6 22.0  52d  44
2022 12 26 00  11 15 36.088   +55 39 37.85  .22108 1.1037 117.7 22.0  52d  44
2022 12 26 01  11 15 34.103   +55 40 40.54  .22112 1.1038 117.7 22.0  52d  44
2022 12 26 02  11 15 32.102   +55 41 43.20  .22115 1.1039 117.7 22.0  52d  44
2022 12 26 03  11 15 30.084   +55 42 45.85  .22119 1.1041 117.8 22.0  52d  44
2022 12 26 04  11 15 28.050   +55 43 48.48  .22123 1.1042 117.8 22.0  52d  44